Location: Newark
(21.1200°N, 73.4000°E)
Time: 19:53:02
(UTC+00:00)

Vanguard 1 Rocket - Pass Details

Date: 22 January 2020
Orbit: 650 x 4226 km, 34.3° (Epoch: 17 February)

Event Time Altitude Azimuth Distance (km) Brightness Sun altitude
Rises 13:46:40 0° 290° (WNW) 7,827 13.1 -13.4°
Reaches altitude 10° 13:52:16 10° 284° (WNW) 7,100 12.9 -14.6°
Maximum altitude 14:14:31 39° 225° (SW) 5,269 11.7 -19.7°
Drops below altitude 10° 14:34:12 10° 163° (SSE) 6,216 11.6 -24.1°
Sets 14:38:51 0° 154° (SSE) 6,804 11.7 -25.2°
